Lihue, HI

1:08 AM HST on February 26, 2017 (GMT -1000)
Lihue

Weather History for PHLI - February, 2012

Change the Weather History Date:

Tuesday, February 28, 2012

  Actual Average Record
Temperature  
Mean Temperature 75 °F 72 °F  
Max Temperature 78 °F 78 °F 84 °F (1986)
Min Temperature 72 °F 66 °F 56 °F (1965)
Degree Days  
Heating Degree Days 0 0  
Month to date heating degree days 0 0  
Since 1 July heating degree days 0 0  
Cooling Degree Days 10 7  
Month to date cooling degree days 222 186  
Year to date cooling degree days 492 395  
Growing Degree Days 24 (Base 50)    
Moisture  
Dew Point 65 °F    
Average Humidity 68    
Maximum Humidity 74    
Minimum Humidity 62    
Precipitation  
Precipitation 0.00 in 0.13 in 5.40 in (1954)
Month to date precipitation 8.24 3.16  
Year to date precipitation 12.42 6.91  
Snow  
Snow 0.00 in - - ()
Month to date snowfall 0.0  
Since 1 July snowfall 0.0  
Snow Depth 0.00 in    
Sea Level Pressure  
Sea Level Pressure 30.08 in    
Wind  
Wind Speed 15 mph (East)    
Max Wind Speed 23 mph    
Max Gust Speed 28 mph    
Visibility 10 miles    
Events      
T = Trace of Precipitation, MM = Missing Value Source: NWS Daily Summary

Daily Weather History Graph

Daily Weather History Graph

Search for Another Location

Airport or City:

Trip Planner

Search our weather history database for the weather conditions in past years. The results will help you decide how hot, cold, wet, or windy it might be!

Date:

Astronomy

Feb. 28, 2012 Rise Set
Actual Time 6:59 AM HST 6:40 PM HST
Civil Twilight 6:36 AM HST 7:03 PM HST
Nautical Twilight 6:10 AM HST 7:29 PM HST
Astronomical Twilight 5:45 AM HST 7:55 PM HST
Moon 11:07 AM HST (2/28) No Moon Set
Length of Visible Light 12h 26m
Length of Day
11h 41m
Waxing Crescent, 39% of the Moon is Illuminated
Feb 28
Waxing Crescent
Feb 29
First Quarter
Mar 7
Full
Mar 14
Last Quarter
Mar 22
New

Hourly Weather History & Observations

Time (HST) Temp. Dew Point Humidity Pressure Visibility Wind Dir Wind Speed Gust Speed Precip Events Conditions
12:53 AM 73.0 °F 64.0 °F 73% 30.06 in 10.0 mi East 19.6 mph - N/A   Overcast
1:53 AM 73.0 °F 64.0 °F 73% 30.06 in 10.0 mi East 19.6 mph - N/A   Overcast
2:53 AM 73.0 °F 64.9 °F 76% 30.06 in 10.0 mi East 15.0 mph - N/A   Overcast
3:53 AM 73.0 °F 63.0 °F 71% 30.06 in 10.0 mi East 17.3 mph - N/A   Overcast
4:48 AM 73.4 °F 64.4 °F 73% 30.06 in 10.0 mi East 16.1 mph - N/A   Overcast
4:53 AM 73.0 °F 63.0 °F 71% 30.06 in 10.0 mi East 16.1 mph - N/A   Overcast
5:08 AM 73.4 °F 62.6 °F 69% 30.06 in 10.0 mi East 15.0 mph - N/A   Mostly Cloudy
5:53 AM 72.0 °F 63.0 °F 73% 30.07 in 10.0 mi East 13.8 mph - N/A   Mostly Cloudy
6:53 AM 73.0 °F 63.0 °F 71% 30.08 in 10.0 mi East 15.0 mph - N/A   Overcast
7:53 AM 73.0 °F 64.0 °F 73% 30.10 in 10.0 mi East 10.4 mph - N/A   Overcast
8:53 AM 73.9 °F 64.0 °F 71% 30.11 in 10.0 mi East 11.5 mph - N/A   Overcast
9:53 AM 75.9 °F 66.0 °F 71% 30.12 in 10.0 mi East 11.5 mph - N/A   Overcast
10:53 AM 77.0 °F 64.9 °F 66% 30.12 in 10.0 mi East 13.8 mph - N/A   Overcast
11:06 AM 77.0 °F 64.4 °F 65% 30.13 in 10.0 mi East 13.8 mph - N/A   Overcast
11:41 AM 75.2 °F 64.4 °F 69% 30.12 in 10.0 mi East 12.7 mph - N/A   Mostly Cloudy
11:53 AM 78.1 °F 64.9 °F 64% 30.11 in 10.0 mi East 11.5 mph - N/A   Mostly Cloudy
12:53 PM 75.9 °F 66.0 °F 71% 30.08 in 10.0 mi East 11.5 mph - N/A   Overcast
1:53 PM 75.9 °F 66.0 °F 71% 30.07 in 10.0 mi East 12.7 mph - N/A   Scattered Clouds
2:53 PM 75.9 °F 66.0 °F 71% 30.05 in 10.0 mi East 12.7 mph - N/A   Overcast
3:53 PM 75.0 °F 64.9 °F 71% 30.04 in 10.0 mi East 16.1 mph 21.9 mph N/A   Overcast
4:53 PM 73.9 °F 66.0 °F 76% 30.04 in 10.0 mi East 17.3 mph - N/A   Overcast
5:53 PM 73.9 °F 66.9 °F 79% 30.05 in 9.0 mi East 16.1 mph - N/A   Overcast
6:53 PM 73.0 °F 66.0 °F 79% 30.07 in 10.0 mi ENE 18.4 mph - N/A   Overcast
7:33 PM 73.4 °F 66.2 °F 78% 30.07 in 10.0 mi East 19.6 mph - N/A   Overcast
7:53 PM 73.0 °F 66.0 °F 79% 30.07 in 10.0 mi East 17.3 mph 25.3 mph N/A   Overcast
8:51 PM 71.6 °F 66.2 °F 83% 30.09 in 10.0 mi East 17.3 mph - N/A   Overcast
8:53 PM 72.0 °F 66.9 °F 84% 30.09 in 10.0 mi East 16.1 mph - N/A   Overcast
9:53 PM 72.0 °F 66.9 °F 84% 30.09 in 10.0 mi East 21.9 mph 25.3 mph 0.00 in   Overcast
10:53 PM 73.0 °F 66.0 °F 79% 30.09 in 10.0 mi East 16.1 mph - N/A   Overcast
11:00 PM 73.4 °F 66.2 °F 78% 30.09 in 9.0 mi East 18.4 mph 24.2 mph N/A   Overcast
11:17 PM 73.4 °F 66.2 °F 78% 30.10 in 10.0 mi East 21.9 mph - N/A   Mostly Cloudy
11:53 PM 73.0 °F 66.0 °F 79% 30.08 in 10.0 mi East 20.7 mph - N/A   Mostly Cloudy